• In Belgien
  • Länderverzeichnis
  • Für 7 Tage
  • Wassertemperatur
  • Satellitenkarten
  • Wetterkarte
  • Widgets
  • user-avatar
    Anmelden

    Stündliche Wetter Domashka

    Heute, 19 Oktober, Freitag

    Zeit Temperatur Niederschläge Wind Luftdruck Luftfeuchtigkeit
    00:00 +7°C° 0 mm 3 m/S 763 mmHg 64%
    01:00 +7°C° 0 mm 3 m/S 763 mmHg 66%
    02:00 +7°C° 0 mm 3 m/S 762 mmHg 68%
    03:00 +6°C° 0 mm 2 m/S 762 mmHg 76%
    04:00 +7°C° 0 mm 3 m/S 762 mmHg 77%
    05:00 +6°C° 0 mm 4 m/S 762 mmHg 78%
    06:00 +6°C° 0 mm 4 m/S 762 mmHg 80%
    07:00 +7°C° 0 mm 5 m/S 761 mmHg 77%
    08:00 +9°C° 0 mm 5 m/S 761 mmHg 74%
    09:00 +10°C° 0 mm 6 m/S 761 mmHg 71%
    10:00 +11°C° 0 mm 6 m/S 761 mmHg 67%
    11:00 +14°C° 0 mm 6 m/S 761 mmHg 63%
    12:00 +15°C° 0 mm 6 m/S 760 mmHg 59%
    13:00 +16°C° 0 mm 6 m/S 760 mmHg 58%
    14:00 +16°C° 0 mm 6 m/S 760 mmHg 58%
    15:00 +16°C° 0 mm 6 m/S 760 mmHg 57%
    16:00 +15°C° 0 mm 5 m/S 760 mmHg 61%
    17:00 +14°C° 0 mm 5 m/S 760 mmHg 65%
    18:00 +13°C° 0 mm 5 m/S 759 mmHg 69%
    19:00 +12°C° 0 mm 5 m/S 759 mmHg 69%
    20:00 +12°C° 0 mm 5 m/S 759 mmHg 70%
    21:00 +12°C° 0 mm 5 m/S 759 mmHg 70%
    22:00 +10°C° 0 mm 5 m/S 759 mmHg 70%
    23:00 +10°C° 0 mm 5 m/S 759 mmHg 70%

    Morgen, 20 Oktober, Samstag

    Zeit Temperatur Niederschläge Wind Luftdruck Luftfeuchtigkeit
    00:00 +10°C° 0 mm 5 m/S 758 mmHg 71%
    01:00 +10°C° 0 mm 5 m/S 758 mmHg 71%
    02:00 +9°C° 0 mm 5 m/S 758 mmHg 71%
    03:00 +9°C° 0 mm 5 m/S 758 mmHg 71%
    04:00 +9°C° 0 mm 5 m/S 758 mmHg 71%
    05:00 +8°C° 0 mm 5 m/S 757 mmHg 71%
    06:00 +8°C° 0 mm 5 m/S 757 mmHg 71%
    07:00 +9°C° 0 mm 5 m/S 757 mmHg 67%
    08:00 +10°C° 0 mm 5 m/S 757 mmHg 64%
    09:00 +11°C° 0 mm 6 m/S 757 mmHg 61%
    10:00 +13°C° 0 mm 6 m/S 757 mmHg 59%
    11:00 +14°C° 0 mm 5 m/S 757 mmHg 58%
    12:00 +15°C° 0 mm 5 m/S 757 mmHg 56%
    13:00 +14°C° 0 mm 5 m/S 757 mmHg 60%
    14:00 +14°C° 0 mm 4 m/S 757 mmHg 64%
    15:00 +14°C° 0 mm 4 m/S 757 mmHg 68%
    16:00 +13°C° 0 mm 3 m/S 757 mmHg 72%
    17:00 +12°C° 0 mm 3 m/S 758 mmHg 77%
    18:00 +12°C° 0 mm 2 m/S 758 mmHg 82%
    19:00 +10°C° 0 mm 2 m/S 758 mmHg 82%
    20:00 +9°C° 0 mm 2 m/S 759 mmHg 82%
    21:00 +8°C° 0 mm 2 m/S 759 mmHg 82%
    22:00 +8°C° 0 mm 2 m/S 759 mmHg 82%
    23:00 +7°C° 0 mm 2 m/S 759 mmHg 83%

    übermorgen, 21 Oktober, Sonntag

    Zeit Temperatur Niederschläge Wind Luftdruck Luftfeuchtigkeit
    00:00 +7°C° 0 mm 2 m/S 760 mmHg 84%
    01:00 +6°C° 0 mm 2 m/S 760 mmHg 84%
    02:00 +7°C° 0 mm 1 m/S 760 mmHg 85%
    03:00 +6°C° 0 mm 1 m/S 760 mmHg 86%
    04:00 +6°C° 0 mm 1 m/S 761 mmHg 86%
    05:00 +6°C° 0 mm 1 m/S 761 mmHg 86%
    06:00 +6°C° 0 mm 1 m/S 761 mmHg 87%
    07:00 +7°C° 0 mm 1 m/S 762 mmHg 81%
    08:00 +8°C° 0 mm 1 m/S 762 mmHg 75%
    09:00 +8°C° 0 mm 2 m/S 762 mmHg 69%
    10:00 +9°C° 0 mm 2 m/S 762 mmHg 64%
    11:00 +10°C° 0 mm 2 m/S 763 mmHg 59%
    12:00 +12°C° 0 mm 2 m/S 763 mmHg 54%
    13:00 +12°C° 0 mm 2 m/S 763 mmHg 54%
    14:00 +12°C° 0 mm 2 m/S 763 mmHg 53%
    15:00 +12°C° 0 mm 2 m/S 763 mmHg 53%
    16:00 +9°C° 0 mm 2 m/S 763 mmHg 58%
    17:00 +8°C° 0 mm 2 m/S 764 mmHg 62%
    18:00 +7°C° 0 mm 2 m/S 764 mmHg 67%
    19:00 +7°C° 0 mm 2 m/S 764 mmHg 70%
    20:00 +6°C° 0 mm 2 m/S 764 mmHg 72%
    21:00 +6°C° 0 mm 2 m/S 764 mmHg 75%
    22:00 +6°C° 0 mm 2 m/S 765 mmHg 76%
    23:00 +5°C° 0 mm 2 m/S 765 mmHg 78%

    22 Oktober, Montag

    Zeit Temperatur Niederschläge Wind Luftdruck Luftfeuchtigkeit
    00:00 +5°C° 0 mm 2 m/S 765 mmHg 79%
    01:00 +5°C° 0 mm 2 m/S 765 mmHg 80%
    02:00 +5°C° 0 mm 2 m/S 765 mmHg 82%
    03:00 +5°C° 0 mm 2 m/S 765 mmHg 83%
    04:00 +4°C° 0 mm 2 m/S 765 mmHg 85%
    05:00 +4°C° 0 mm 2 m/S 765 mmHg 87%
    06:00 +4°C° 0 mm 2 m/S 765 mmHg 88%
    07:00 +5°C° 0 mm 2 m/S 766 mmHg 83%
    08:00 +6°C° 0 mm 2 m/S 766 mmHg 77%
    09:00 +7°C° 0 mm 2 m/S 766 mmHg 71%
    10:00 +8°C° 0 mm 2 m/S 766 mmHg 66%
    11:00 +8°C° 0 mm 2 m/S 766 mmHg 60%
    12:00 +9°C° 0 mm 2 m/S 766 mmHg 55%
    13:00 +9°C° 0 mm 2 m/S 766 mmHg 54%
    14:00 +9°C° 0 mm 2 m/S 766 mmHg 53%
    15:00 +9°C° 0 mm 2 m/S 765 mmHg 52%
    16:00 +8°C° 0 mm 2 m/S 765 mmHg 56%
    17:00 +7°C° 0 mm 2 m/S 766 mmHg 61%
    18:00 +6°C° 0 mm 2 m/S 766 mmHg 65%
    19:00 +5°C° 0 mm 2 m/S 766 mmHg 67%
    20:00 +5°C° 0 mm 2 m/S 766 mmHg 69%
    21:00 +4°C° 0 mm 2 m/S 766 mmHg 71%
    22:00 +4°C° 0 mm 2 m/S 766 mmHg 72%
    23:00 +3°C° 0 mm 2 m/S 766 mmHg 73%

    23 Oktober, Dienstag

    Zeit Temperatur Niederschläge Wind Luftdruck Luftfeuchtigkeit
    00:00 +3°C° 0 mm 2 m/S 765 mmHg 74%
    01:00 +3°C° 0 mm 2 m/S 765 mmHg 74%
    02:00 +2°C° 0 mm 2 m/S 765 mmHg 74%
    03:00 +2°C° 0 mm 2 m/S 765 mmHg 75%
    04:00 +2°C° 0 mm 2 m/S 765 mmHg 74%
    05:00 +1°C° 0 mm 2 m/S 765 mmHg 73%
    06:00 +1°C° 0 mm 2 m/S 765 mmHg 72%
    07:00 +2°C° 0 mm 2 m/S 765 mmHg 66%
    08:00 +3°C° 0 mm 3 m/S 765 mmHg 59%
    09:00 +4°C° 0 mm 3 m/S 765 mmHg 52%
    10:00 +5°C° 0 mm 3 m/S 764 mmHg 47%
    11:00 +8°C° 0 mm 3 m/S 764 mmHg 42%
    12:00 +10°C° 0 mm 3 m/S 764 mmHg 37%
    13:00 +10°C° 0 mm 3 m/S 763 mmHg 39%
    14:00 +10°C° 0 mm 3 m/S 763 mmHg 40%
    15:00 +10°C° 0 mm 3 m/S 762 mmHg 41%
    16:00 +9°C° 0 mm 3 m/S 762 mmHg 47%
    17:00 +8°C° 0 mm 3 m/S 762 mmHg 53%
    18:00 +7°C° 0 mm 3 m/S 762 mmHg 59%
    19:00 +7°C° 0 mm 3 m/S 761 mmHg 60%
    20:00 +7°C° 0 mm 3 m/S 761 mmHg 61%
    21:00 +8°C° 0 mm 3 m/S 760 mmHg 63%
    22:00 +8°C° 0 mm 3 m/S 760 mmHg 64%
    23:00 +8°C° 0 mm 3 m/S 760 mmHg 66%

    24 Oktober, Mittwoch

    Zeit Temperatur Niederschläge Wind Luftdruck Luftfeuchtigkeit
    00:00 +8°C° 0 mm 3 m/S 759 mmHg 68%
    01:00 +8°C° 0 mm 3 m/S 759 mmHg 67%
    02:00 +7°C° 0 mm 4 m/S 758 mmHg 67%
    03:00 +8°C° 0 mm 4 m/S 758 mmHg 67%
    04:00 +8°C° 0 mm 4 m/S 757 mmHg 65%
    05:00 +8°C° 0 mm 5 m/S 757 mmHg 64%
    06:00 +8°C° 0 mm 5 m/S 757 mmHg 62%
    07:00 +9°C° 0 mm 6 m/S 756 mmHg 62%
    08:00 +10°C° 0 mm 6 m/S 756 mmHg 61%
    09:00 +11°C° 0 mm 7 m/S 756 mmHg 60%
    10:00 +11°C° 0 mm 7 m/S 755 mmHg 60%
    11:00 +11°C° 0 mm 7 m/S 755 mmHg 60%
    12:00 +12°C° 0 mm 7 m/S 754 mmHg 60%
    13:00 +13°C° 0 mm 6 m/S 754 mmHg 60%
    14:00 +13°C° 0 mm 6 m/S 753 mmHg 60%
    15:00 +13°C° 0 mm 6 m/S 753 mmHg 60%
    16:00 +13°C° 0.1 mm 6 m/S 753 mmHg 59%
    17:00 +13°C° 0.1 mm 6 m/S 752 mmHg 58%
    18:00 +13°C° 0.1 mm 5 m/S 752 mmHg 57%
    19:00 +13°C° 0 mm 6 m/S 752 mmHg 55%
    20:00 +13°C° 0 mm 6 m/S 751 mmHg 54%
    21:00 +12°C° 0 mm 7 m/S 751 mmHg 52%
    22:00 +12°C° 0 mm 7 m/S 750 mmHg 53%
    23:00 +12°C° 0 mm 7 m/S 750 mmHg 53%
    Mehr zeigen